Time,TemperatureF,DewpointF,PressureIn,WindDirection,WindDirectionDegrees,WindSpeedMPH,WindSpeedGustMPH,Humidity,HourlyPrecipIn,Conditions,Clouds,dailyrainin,SoftwareType,DateUTC
2013-01-23 00:13:00,38.1,33.0,29.59,North,355,3.0,-999.0,82,-99.99,,,0.00,weatherlink.com 1.10,2013-01-23 00:13:00,
2013-01-23 00:29:00,38.4,33.0,29.60,NNE,15,10.0,-999.0,82,-99.99,,,0.00,weatherlink.com 1.10,2013-01-23 00:29:00,
2013-01-23 00:44:00,38.5,33.0,29.60,NNE,13,10.0,-999.0,82,-99.99,,,0.00,weatherlink.com 1.10,2013-01-23 00:44:00,
2013-01-23 00:59:00,38.5,33.0,29.60,NNE,12,11.0,-999.0,81,-99.99,,,0.00,weatherlink.com 1.10,2013-01-23 00:59:00,
2013-01-23 01:14:00,38.4,33.0,29.61,North,5,11.0,-999.0,81,-99.99,,,0.01,weatherlink.com 1.10,2013-01-23 01:14:00,
2013-01-23 01:29:00,38.2,33.0,29.61,NNE,32,6.0,-999.0,81,-99.99,,,0.01,weatherlink.com 1.10,2013-01-23 01:29:00,
2013-01-23 01:44:00,38.1,33.0,29.62,NNE,21,4.0,-999.0,81,-99.99,,,0.01,weatherlink.com 1.10,2013-01-23 01:44:00,
2013-01-23 01:59:00,38.0,33.0,29.62,North,10,10.0,-999.0,81,-99.99,,,0.01,weatherlink.com 1.10,2013-01-23 01:59:00,
2013-01-23 02:13:00,38.1,33.0,29.62,North,360,7.0,-999.0,81,-99.99,,,0.01,weatherlink.com 1.10,2013-01-23 02:13:00,
2013-01-23 02:28:00,38.1,33.0,29.62,North,11,7.0,-999.0,81,-99.99,,,0.01,weatherlink.com 1.10,2013-01-23 02:28:00,
2013-01-23 02:43:00,38.1,33.0,29.62,North,5,5.0,-999.0,82,-99.99,,,0.01,weatherlink.com 1.10,2013-01-23 02:43:00,
2013-01-23 02:58:00,38.1,33.0,29.63,North,360,6.0,-999.0,82,-99.99,,,0.01,weatherlink.com 1.10,2013-01-23 02:58:00,
2013-01-23 03:13:00,38.3,33.0,29.63,North,355,7.0,-999.0,82,-99.99,,,0.01,weatherlink.com 1.10,2013-01-23 03:13:00,
2013-01-23 03:28:00,38.4,33.0,29.63,North,360,7.0,-999.0,82,-99.99,,,0.01,weatherlink.com 1.10,2013-01-23 03:28:00,
2013-01-23 03:58:00,38.5,33.0,29.64,North,5,9.0,-999.0,81,-99.99,,,0.01,weatherlink.com 1.10,2013-01-23 03:58:00,
2013-01-23 04:13:00,39.0,33.0,29.64,North,360,14.0,-999.0,80,-99.99,,,0.01,weatherlink.com 1.10,2013-01-23 04:13:00,
2013-01-23 04:28:00,39.1,33.0,29.64,NNW,348,6.0,-999.0,79,-99.99,,,0.01,weatherlink.com 1.10,2013-01-23 04:28:00,
2013-01-23 04:43:00,38.9,33.0,29.64,North,351,2.0,-999.0,80,-99.99,,,0.01,weatherlink.com 1.10,2013-01-23 04:43:00,
2013-01-23 04:58:00,38.7,33.0,29.64,North,5,4.0,-999.0,80,-99.99,,,0.01,weatherlink.com 1.10,2013-01-23 04:58:00,
2013-01-23 05:28:00,38.6,33.0,29.64,North,360,4.0,-999.0,81,-99.99,,,0.01,weatherlink.com 1.10,2013-01-23 05:28:00,
2013-01-23 05:43:00,38.8,33.0,29.64,NNE,15,4.0,-999.0,80,-99.99,,,0.01,weatherlink.com 1.10,2013-01-23 05:43:00,
2013-01-23 05:58:00,38.8,33.0,29.64,North,360,1.0,-999.0,80,-99.99,,,0.01,weatherlink.com 1.10,2013-01-23 05:58:00,
2013-01-23 06:13:00,38.7,33.0,29.65,North,360,7.0,-999.0,80,-99.99,,,0.01,weatherlink.com 1.10,2013-01-23 06:13:00,
2013-01-23 06:28:00,38.7,33.0,29.65,North,5,0.0,-999.0,80,-99.99,,,0.01,weatherlink.com 1.10,2013-01-23 06:28:00,
2013-01-23 06:43:00,38.7,33.0,29.66,North,5,5.0,-999.0,80,-99.99,,,0.01,weatherlink.com 1.10,2013-01-23 06:43:00,
2013-01-23 06:58:00,38.7,33.0,29.66,North,360,1.0,-999.0,80,-99.99,,,0.01,weatherlink.com 1.10,2013-01-23 06:58:00,
2013-01-23 07:13:00,38.6,33.0,29.66,NNE,18,5.0,-999.0,80,-99.99,,,0.01,weatherlink.com 1.10,2013-01-23 07:13:00,
2013-01-23 07:28:00,38.3,33.0,29.67,NNE,19,3.0,-999.0,81,-99.99,,,0.01,weatherlink.com 1.10,2013-01-23 07:28:00,
2013-01-23 07:43:00,38.1,33.0,29.68,NNE,14,0.0,-999.0,81,-99.99,,,0.01,weatherlink.com 1.10,2013-01-23 07:43:00,
2013-01-23 07:58:00,38.2,33.0,29.68,NNE,13,0.0,-999.0,81,-99.99,,,0.01,weatherlink.com 1.10,2013-01-23 07:58:00,
2013-01-23 08:13:00,38.3,33.0,29.69,NNE,14,2.0,-999.0,81,-99.99,,,0.01,weatherlink.com 1.10,2013-01-23 08:13:00,
2013-01-23 08:28:00,38.2,33.0,29.69,NNE,14,0.0,-999.0,81,-99.99,,,0.01,weatherlink.com 1.10,2013-01-23 08:28:00,
2013-01-23 08:43:00,38.0,33.0,29.69,NNE,14,1.0,-999.0,81,-99.99,,,0.01,weatherlink.com 1.10,2013-01-23 08:43:00,
2013-01-23 08:58:00,37.8,32.0,29.68,NNE,14,0.0,-999.0,81,-99.99,,,0.01,weatherlink.com 1.10,2013-01-23 08:58:00,
2013-01-23 09:13:00,37.8,32.0,29.68,NNE,14,0.0,-999.0,81,-99.99,,,0.01,weatherlink.com 1.10,2013-01-23 09:13:00,
2013-01-23 09:28:00,37.8,33.0,29.68,NNE,14,1.0,-999.0,82,-99.99,,,0.01,weatherlink.com 1.10,2013-01-23 09:28:00,
2013-01-23 09:43:00,37.8,32.0,29.68,NNE,14,1.0,-999.0,81,-99.99,,,0.01,weatherlink.com 1.10,2013-01-23 09:43:00,
2013-01-23 09:58:00,37.8,32.0,29.68,NNE,14,0.0,-999.0,81,-99.99,,,0.01,weatherlink.com 1.10,2013-01-23 09:58:00,
2013-01-23 10:13:00,38.1,33.0,29.68,NNE,14,0.0,-999.0,81,-99.99,,,0.01,weatherlink.com 1.10,2013-01-23 10:13:00,
2013-01-23 10:28:00,38.2,33.0,29.68,NNE,14,3.0,-999.0,81,-99.99,,,0.01,weatherlink.com 1.10,2013-01-23 10:28:00,
2013-01-23 10:43:00,38.4,33.0,29.66,NNE,14,2.0,-999.0,81,-99.99,,,0.01,weatherlink.com 1.10,2013-01-23 10:43:00,
2013-01-23 10:58:00,38.8,33.0,29.67,NNE,14,0.0,-999.0,80,-99.99,,,0.01,weatherlink.com 1.10,2013-01-23 10:58:00,
2013-01-23 11:13:00,38.9,33.0,29.67,NNE,14,1.0,-999.0,79,-99.99,,,0.01,weatherlink.com 1.10,2013-01-23 11:13:00,
2013-01-23 11:28:00,39.1,33.0,29.66,NNE,14,0.0,-999.0,79,-99.99,,,0.01,weatherlink.com 1.10,2013-01-23 11:28:00,
2013-01-23 11:43:00,39.6,34.0,29.66,NNE,14,0.0,-999.0,79,-99.99,,,0.01,weatherlink.com 1.10,2013-01-23 11:43:00,
2013-01-23 11:58:00,40.1,34.0,29.66,NNE,14,0.0,-999.0,79,-99.99,,,0.01,weatherlink.com 1.10,2013-01-23 11:58:00,
2013-01-23 12:13:00,40.9,35.0,29.66,NNE,14,1.0,-999.0,78,-99.99,,,0.01,weatherlink.com 1.10,2013-01-23 12:13:00,
2013-01-23 12:43:00,40.9,34.0,29.65,NNE,14,0.0,-999.0,77,-99.99,,,0.01,weatherlink.com 1.10,2013-01-23 12:43:00,
2013-01-23 12:58:00,41.1,34.0,29.65,NNE,14,0.0,-999.0,77,-99.99,,,0.01,weatherlink.com 1.10,2013-01-23 12:58:00,
2013-01-23 13:13:00,41.7,35.0,29.65,NNE,14,0.0,-999.0,77,-99.99,,,0.01,weatherlink.com 1.10,2013-01-23 13:13:00,
2013-01-23 13:28:00,41.7,35.0,29.64,NNE,14,0.0,-999.0,77,-99.99,,,0.01,weatherlink.com 1.10,2013-01-23 13:28:00,
2013-01-23 13:43:00,40.8,34.0,29.64,NNE,14,2.0,-999.0,78,-99.99,,,0.01,weatherlink.com 1.10,2013-01-23 13:43:00,
2013-01-23 13:58:00,40.3,34.0,29.63,NNE,14,0.0,-999.0,78,-99.99,,,0.01,weatherlink.com 1.10,2013-01-23 13:58:00,
2013-01-23 14:13:00,40.2,34.0,29.62,NNE,14,3.0,-999.0,79,-99.99,,,0.01,weatherlink.com 1.10,2013-01-23 14:13:00,
2013-01-23 14:28:00,40.4,34.0,29.62,NNE,14,0.0,-999.0,79,-99.99,,,0.01,weatherlink.com 1.10,2013-01-23 14:28:00,
2013-01-23 14:43:00,40.4,34.0,29.61,NNE,15,2.0,-999.0,78,-99.99,,,0.01,weatherlink.com 1.10,2013-01-23 14:43:00,
2013-01-23 14:58:00,40.5,34.0,29.61,NNE,14,3.0,-999.0,78,-99.99,,,0.01,weatherlink.com 1.10,2013-01-23 14:58:00,
2013-01-23 15:13:00,40.5,34.0,29.61,NNE,15,2.0,-999.0,78,-99.99,,,0.01,weatherlink.com 1.10,2013-01-23 15:13:00,
2013-01-23 15:28:00,40.4,34.0,29.60,NNE,22,0.0,-999.0,78,-99.99,,,0.01,weatherlink.com 1.10,2013-01-23 15:28:00,
2013-01-23 15:43:00,40.4,34.0,29.60,NNE,22,2.0,-999.0,78,-99.99,,,0.01,weatherlink.com 1.10,2013-01-23 15:43:00,
2013-01-23 15:58:00,40.4,34.0,29.59,NNE,22,3.0,-999.0,78,-99.99,,,0.01,weatherlink.com 1.10,2013-01-23 15:58:00,
2013-01-23 16:13:00,40.4,34.0,29.59,NNE,22,3.0,-999.0,78,-99.99,,,0.01,weatherlink.com 1.10,2013-01-23 16:13:00,
2013-01-23 16:28:00,40.4,34.0,29.58,NNE,22,0.0,-999.0,78,-99.99,,,0.01,weatherlink.com 1.10,2013-01-23 16:28:00,
2013-01-23 16:43:00,40.2,34.0,29.58,NNE,22,0.0,-999.0,77,-99.99,,,0.01,weatherlink.com 1.10,2013-01-23 16:43:00,
2013-01-23 16:58:00,40.3,34.0,29.58,NNE,22,0.0,-999.0,78,-99.99,,,0.01,weatherlink.com 1.10,2013-01-23 16:58:00,
2013-01-23 17:13:00,40.2,34.0,29.58,NNE,22,1.0,-999.0,79,-99.99,,,0.01,weatherlink.com 1.10,2013-01-23 17:13:00,
2013-01-23 17:28:00,40.1,34.0,29.58,NNE,22,0.0,-999.0,79,-99.99,,,0.01,weatherlink.com 1.10,2013-01-23 17:28:00,
2013-01-23 17:43:00,40.0,34.0,29.58,NNE,22,1.0,-999.0,79,-99.99,,,0.01,weatherlink.com 1.10,2013-01-23 17:43:00,
2013-01-23 17:58:00,39.8,34.0,29.59,NNE,22,0.0,-999.0,79,-99.99,,,0.01,weatherlink.com 1.10,2013-01-23 17:58:00,
2013-01-23 18:13:00,39.5,34.0,29.58,NNE,22,2.0,-999.0,80,-99.99,,,0.00,weatherlink.com 1.10,2013-01-23 18:13:00,
2013-01-23 18:28:00,39.3,34.0,29.58,NNE,22,2.0,-999.0,80,-99.99,,,0.00,weatherlink.com 1.10,2013-01-23 18:28:00,
2013-01-23 18:43:00,39.1,34.0,29.58,NNE,22,6.0,-999.0,81,-99.99,,,0.00,weatherlink.com 1.10,2013-01-23 18:43:00,
2013-01-23 18:58:00,38.9,34.0,29.59,NNE,22,0.0,-999.0,81,-99.99,,,0.00,weatherlink.com 1.10,2013-01-23 18:58:00,
2013-01-23 19:13:00,38.7,34.0,29.59,NNE,22,4.0,-999.0,82,-99.99,,,0.00,weatherlink.com 1.10,2013-01-23 19:13:00,
2013-01-23 19:28:00,38.0,33.0,29.59,NNE,22,1.0,-999.0,82,-99.99,,,0.00,weatherlink.com 1.10,2013-01-23 19:28:00,
2013-01-23 19:43:00,37.4,33.0,29.59,NNE,22,4.0,-999.0,83,-99.99,,,0.00,weatherlink.com 1.10,2013-01-23 19:43:00,
2013-01-23 19:58:00,36.9,32.0,29.59,NNE,22,5.0,-999.0,83,-99.99,,,0.00,weatherlink.com 1.10,2013-01-23 19:58:00,
2013-01-23 20:13:00,36.5,32.0,29.60,NNE,22,1.0,-999.0,84,-99.99,,,0.00,weatherlink.com 1.10,2013-01-23 20:13:00,
2013-01-23 20:28:00,36.4,32.0,29.60,NNE,22,6.0,-999.0,84,-99.99,,,0.00,weatherlink.com 1.10,2013-01-23 20:28:00,
2013-01-23 20:43:00,36.4,32.0,29.61,NNE,22,6.0,-999.0,84,-99.99,,,0.00,weatherlink.com 1.10,2013-01-23 20:43:00,
2013-01-23 20:58:00,36.4,32.0,29.62,NNE,22,3.0,-999.0,85,-99.99,,,0.00,weatherlink.com 1.10,2013-01-23 20:58:00,
2013-01-23 21:13:00,36.6,33.0,29.62,NNE,22,1.0,-999.0,85,-99.99,,,0.00,weatherlink.com 1.10,2013-01-23 21:13:00,
2013-01-23 21:28:00,36.4,32.0,29.63,NNE,22,3.0,-999.0,85,-99.99,,,0.00,weatherlink.com 1.10,2013-01-23 21:28:00,
2013-01-23 21:43:00,36.8,33.0,29.64,NNE,24,3.0,-999.0,85,-99.99,,,0.00,weatherlink.com 1.10,2013-01-23 21:43:00,
2013-01-23 21:58:00,36.4,32.0,29.65,NNE,24,2.0,-999.0,85,-99.99,,,0.00,weatherlink.com 1.10,2013-01-23 21:58:00,
2013-01-23 22:13:00,36.1,32.0,29.65,NNE,24,5.0,-999.0,85,-99.99,,,0.00,weatherlink.com 1.10,2013-01-23 22:13:00,
2013-01-23 22:28:00,35.8,32.0,29.66,NNE,23,5.0,-999.0,85,-99.99,,,0.00,weatherlink.com 1.10,2013-01-23 22:28:00,
2013-01-23 22:43:00,35.6,32.0,29.66,NNE,23,4.0,-999.0,85,-99.99,,,0.00,weatherlink.com 1.10,2013-01-23 22:43:00,
2013-01-23 22:58:00,35.8,32.0,29.67,NNE,23,3.0,-999.0,85,-99.99,,,0.00,weatherlink.com 1.10,2013-01-23 22:58:00,
2013-01-23 23:13:00,36.1,32.0,29.68,NNE,23,5.0,-999.0,85,-99.99,,,0.00,weatherlink.com 1.10,2013-01-23 23:13:00,
2013-01-23 23:28:00,36.2,32.0,29.68,NNE,17,1.0,-999.0,85,-99.99,,,0.00,weatherlink.com 1.10,2013-01-23 23:28:00,
2013-01-23 23:43:00,36.1,32.0,29.68,NNE,17,3.0,-999.0,85,-99.99,,,0.00,weatherlink.com 1.10,2013-01-23 23:43:00,
2013-01-23 23:58:00,36.0,32.0,29.68,NNE,15,7.0,-999.0,85,-99.99,,,0.00,weatherlink.com 1.10,2013-01-23 23:58:00,